Location: Roland
(31.1349°N, 85.4372°W)
Time: 01:36:42
(UTC+00:00)

S-56A Canister/Altair - Pass Details

Date: 21 April 2021
Orbit: 632 x 2500 km, 38.9° (Epoch: 06 May)

Event Time Altitude Azimuth Distance (km) Brightness Sun altitude
Rises 01:05:03 0° 199° (SSW) 5,836 12.0 -11.3°
Reaches altitude 10° 01:10:24 10° 186° (S) 4,559 11.3 -12.3°
Maximum altitude 01:18:40 22° 143° (SE) 3,163 10.1 -14.0°
Enters shadow 01:21:55 18° 118° (ESE) 3,128 10.0 -14.6°
